Temperature
17 17 17 17 17 17 17 17 17 17 17 17 17 17 17 17 17 16 16 17 17 17 17 17 17 17 17 18 17 17 17 17 17 17 17 17 17 17 17 17 17 17 17
17 17 17 17 17 17 17 17 17 17 17 17 17 17 17 17 17 16 16 16 17 17 17 17 17 17 17 17 17 17 17 17 17 17 17 17 17 17 17 17 17 17 17
17 17 17 17 17 17 17 17 17 17 17 17 17 17 17 17 16 16 16 16 16 16 17 17 17 17 17 17 17 17 17 17 17 17 17 17 17 17 17 17 16 17 17
17 17 17 17 17 17 17 17 17 17 17 17 17 17 17 16 16 16 16 16 16 16 16 16 16 16 17 17 17 17 17 17 17 17 17 17 16 16 16 16 16 16 16
18 17 17 17 17 17 17 17 17 17 17 17 17 17 17 16 16 16 16 16 16 16 16 16 16 16 17 17 17 17 17 16 16 16 16 16 16 16 16 16 16 16 16
17 17 17 17 17 17 17 17 17 17 17 17 17 17 16 16 16 16 16 16 16 16 16 16 16 16 17 17 17 16 16 16 16 16 16 16 16 16 16 16 16 16 16
17 17 17 17 17 17 17 17 17 17 16 16 16 16 16 16 17 16 16 16 16 16 16 16 16 16 16 17 17 16 16 16 16 16 16 16 16 16 16 16 16 16 16
17 17 17 17 17 17 17 16 16 16 16 16 16 16 17 17 16 16 16 16 16 16 16 16 16 16 16 15 16 16 16 16 16 16 16 16 16 16 16 16 16 16 15
18 17 17 17 17 17 17 17 16 16 16 16 16 16 17 17 17 17 16 16 16 16 16 16 16 16 15 15 15 16 16 15 16 16 16 16 16 16 16 16 16 16 15
18 17 17 17 17 17 17 16 16 16 16 16 16 16 16 17 17 17 16 16 16 16 16 16 16 16 15 15 15 15 16 16 16 16 16 16 16 16 16 16 16 15 15
17 17 17 17 17 17 16 16 16 16 16 16 15 15 15 15 16 16 16 16 16 16 16 16 16 15 15 15 15 15 16 16 16 16 16 16 16 16 16 16 16 15 15
17 17 17 17 16 16 16 16 16 16 16 15 15 15 15 15 15 15 15 16 16 16 16 16 15 15 15 15 15 15 15 16 16 16 15 16 16 16 16 16 16 15 15
17 16 16 16 16 16 16 16 16 16 16 15 15 15 15 15 15 15 15 15 15 16 16 16 15 15 15 15 15 15 15 15 15 15 15 15 16 16 16 16 15 15 15
16 16 16 16 16 16 16 16 15 15 15 15 15 15 15 14 14 14 14 14 14 15 15 16 15 15 15 15 15 15 15 15 15 15 15 15 15 15 15 15 15 15 15
16 16 16 16 16 16 16 15 15 15 15 15 15 15 14 14 14 14 14 14 14 14 15 15 15 15 15 15 15 15 15 15 15 15 15 15 15 15 15 15 15 15 15
16 16 16 15 15 15 15 15 15 15 15 15 15 14 14 14 14 14 14 14 14 14 14 14 15 15 15 15 15 15 15 15 15 15 15 15 15 15 15 15 15 15 15
16 15 15 15 15 15 15 15 14 15 14 14 14 14 14 14 14 14 14 14 14 13 13 14 14 14 14 15 15 15 15 15 15 15 15 15 15 15 15 15 15 15 15
16 15 15 15 15 15 15 15 14 14 14 14 14 14 14 14 14 14 14 14 13 13 13 13 14 14 14 14 14 15 15 15 15 15 15 15 15 15 15 15 14 14 14
15 15 15 15 15 15 15 15 14 14 14 14 14 14 14 13 13 13 13 13 13 13 13 13 13 13 14 14 14 14 15 15 15 15 15 15 15 15 15 14 14 14 14
15 15 15 15 15 15 15 14 14 14 14 14 14 14 14 13 13 13 13 13 13 13 13 13 13 13 13 13 14 14 14 15 15 14 15 15 15 14 14 14 14 14 14
15 15 15 15 15 15 15 14 14 14 14 14 14 14 14 14 14 14 13 13 13 13 13 13 13 13 13 13 13 14 14 14 14 14 14 14 14 14 14 14 14 14 14
15 15 15 15 15 14 15 15 15 14 14 14 14 14 14 14 14 14 14 14 13 13 13 13 13 13 13 13 13 13 13 13 13 14 14 14 14 14 14 14 14 14 14
14 14 14 14 14 14 14 14 14 14 14 14 14 14 14 14 14 13 13 14 13 13 13 13 13 13 13 13 13 13 13 13 13 13 13 13 13 14 14 14 14 14 14
13 13 13 13 13 14 14 14 14 14 14 14 14 14 14 14 13 14 13 13 13 13 13 13 13 13 12 12 12 12 12 12 12 12 12 13 13 13 13 13 13 14 14
12 12 12 13 13 13 13 13 13 13 13 13 13 13 13 14 14 14 14 13 13 13 13 13 13 13 13 12 12 12 12 12 12 12 12 12 12 12 13 13 13 13 14
12 12 12 12 12 12 12 13 13 13 13 13 13 13 13 13 14 14 14 13 13 13 13 13 13 13 13 12 12 12 12 12 12 12 12 12 12 12 12 12 12 13 13
Wind_Speed
7 7 7 6 7 6 6 5 5 4 3 3 2 1 2 2 1 1 3 5 3 3 1 1 2 2 3 4 3 4 4 5 6 7 8 7 5 5 4 3 3 3 3
7 7 7 7 7 7 6 5 5 4 4 3 2 2 2 2 2 1 1 4 4 3 2 1 1 1 1 2 4 4 4 5 6 7 7 6 5 5 4 3 3 2 2
9 8 7 7 7 8 7 5 4 4 4 4 4 2 2 2 2 2 2 1 4 5 4 3 2 2 2 2 3 3 4 4 5 6 6 6 5 5 5 4 3 2 1
11 8 7 7 8 7 6 5 5 5 5 5 4 3 2 2 0 2 1 2 2 3 6 6 5 4 3 3 3 3 4 4 4 4 5 5 5 5 5 5 4 3 2
12 9 7 7 9 7 6 6 5 5 5 4 4 4 3 3 1 1 1 1 3 2 4 7 6 5 4 3 2 2 3 3 3 3 3 4 4 4 4 5 5 4 4
11 9 6 8 8 7 7 7 6 5 4 5 5 5 5 4 4 3 2 1 2 2 1 2 4 6 5 3 2 1 3 4 4 3 3 2 3 3 3 4 5 5 5
11 9 7 7 7 8 8 8 7 7 6 6 5 6 6 7 7 5 5 4 4 2 3 3 2 2 4 4 2 1 3 4 4 3 2 1 1 1 1 1 3 4 4
12 10 9 8 8 8 9 10 9 7 7 7 7 6 6 7 7 8 7 6 6 5 5 4 4 3 2 3 7 4 4 4 3 2 2 1 2 2 1 1 1 1 2
11 11 10 9 9 9 9 11 11 11 8 8 9 7 6 6 4 6 9 8 7 6 6 6 5 5 4 3 5 8 5 3 2 1 1 2 2 2 2 2 1 1 1
9 10 10 9 9 9 9 10 12 10 10 9 9 9 9 5 5 4 6 8 9 9 8 6 7 6 6 5 3 4 4 2 1 1 1 2 3 3 3 3 2 2 1
7 8 8 8 8 8 9 9 10 11 10 10 10 9 10 7 9 7 5 5 6 8 9 9 7 8 7 7 6 6 6 3 1 1 2 2 3 3 3 4 4 3 3
4 7 7 7 7 7 7 8 9 10 10 11 10 10 9 9 10 9 8 7 6 6 8 8 9 8 9 9 9 8 8 7 5 3 2 2 2 2 2 3 3 4 4
4 6 6 6 6 6 6 6 8 8 10 11 11 10 10 11 9 9 9 9 7 6 5 7 9 10 11 11 10 12 11 11 9 7 5 4 2 1 1 2 2 3 3
4 6 6 5 5 5 5 5 6 7 8 9 10 11 9 9 9 9 9 8 7 7 7 8 6 9 11 12 12 15 12 15 13 11 9 7 5 3 2 0 1 2 3
4 5 6 5 5 5 5 5 5 6 6 7 8 9 9 8 8 9 9 8 8 7 7 7 5 6 8 11 11 13 13 16 17 14 12 10 8 6 4 3 2 2 3
5 5 6 6 6 5 5 4 4 4 6 6 6 8 8 8 8 8 8 8 8 8 7 4 4 4 4 7 10 13 13 16 17 16 15 13 11 9 7 6 5 4 4
6 6 5 5 5 5 5 4 4 4 5 5 6 7 8 8 8 8 8 8 9 9 10 7 5 4 5 7 6 10 12 13 14 19 17 15 14 12 11 9 8 7 6
5 5 6 5 4 4 4 4 4 4 4 5 5 6 7 6 8 8 8 9 9 10 10 11 7 6 8 8 7 8 9 11 12 17 19 17 16 15 14 13 11 10 9
5 5 5 5 5 5 5 5 5 5 5 5 5 5 5 6 7 7 8 8 8 9 9 9 8 5 5 5 6 7 9 8 11 12 16 18 18 17 16 16 15 14 12
3 5 5 5 6 6 6 6 6 6 5 5 5 5 5 5 6 5 6 7 7 8 8 8 7 5 5 4 5 7 7 8 8 9 11 13 15 19 19 19 18 17 17
2 4 4 5 6 6 6 7 7 7 7 6 6 6 5 3 5 5 5 5 5 5 5 6 6 5 5 4 5 6 7 6 8 8 8 10 11 12 15 19 21 21 20
1 2 3 4 5 4 2 4 8 8 8 7 7 6 5 6 7 7 6 6 6 5 4 4 4 5 6 6 5 5 5 5 5 5 7 8 8 9 10 12 16 21 23
2 1 1 1 2 2 5 5 9 9 9 8 7 6 5 4 5 6 6 8 7 5 4 4 4 4 4 5 5 6 5 4 3 2 2 4 5 7 7 9 9 15 19
6 5 5 4 4 7 9 7 6 9 8 7 7 7 6 7 5 4 4 4 3 2 2 4 3 2 1 2 4 4 4 2 1 1 1 2 2 3 5 7 8 13 16
7 7 7 7 7 8 13 11 8 5 5 5 5 5 6 6 4 2 6 5 4 2 2 2 3 2 3 3 3 3 4 3 2 3 3 2 2 2 3 4 3 7 12
7 7 7 8 8 9 13 14 12 3 3 2 3 3 0 3 3 3 6 5 5 2 2 3 4 5 5 6 7 5 4 4 2 3 4 3 2 1 3 2 1 2 5
Wind_Direction
192 180 187 182 192 180 180 191 197 164 168 141 101 64 55 40 17 42 96 78 27 1 314 224 215 217 213 209 211 207 197 183 176 168 163 158 153 149 143 132 117 101 82
193 186 191 185 189 189 189 197 197 189 195 176 153 84 42 46 51 80 77 122 101 56 36 10 199 182 190 193 204 201 193 187 182 180 177 173 171 167 163 156 136 112 85
194 193 193 188 188 190 194 201 191 207 201 189 183 164 100 46 30 67 75 73 126 109 81 69 88 107 116 118 137 155 166 174 182 190 193 189 185 183 183 184 179 161 126
199 194 195 195 193 192 197 194 207 200 194 201 195 185 174 134 88 53 113 127 109 115 104 79 74 83 94 99 118 134 151 163 175 188 196 196 197 196 197 201 204 208 211
205 197 200 199 193 199 205 205 207 212 203 200 203 205 213 200 185 227 175 102 112 133 120 110 101 78 71 76 101 131 152 162 168 175 186 197 205 210 215 215 217 223 228
214 210 203 211 202 202 208 214 205 213 217 207 214 214 221 224 224 230 237 227 217 159 130 140 160 121 94 61 49 134 163 160 155 155 165 184 203 216 226 228 222 226 230
220 222 221 216 209 212 213 215 211 208 215 214 218 223 224 229 234 218 229 232 217 195 213 185 207 201 150 138 102 93 138 144 142 138 137 150 182 195 198 220 228 229 228
224 227 226 224 219 220 219 218 215 216 213 212 223 232 235 220 224 226 222 232 234 202 226 212 197 197 211 186 115 114 104 114 125 121 114 115 117 110 113 124 183 211 231
228 228 230 226 225 221 221 218 217 220 219 219 229 229 237 238 215 208 219 222 229 224 223 220 216 199 192 200 164 144 122 102 99 115 111 110 110 102 87 80 79 47 291
229 228 230 227 225 224 224 222 222 225 223 221 222 231 241 255 239 217 210 225 226 225 227 215 222 215 203 207 169 130 145 130 42 151 134 115 98 95 85 69 54 44 19
227 228 228 227 228 227 228 226 224 225 225 226 222 218 224 233 245 249 237 218 221 227 227 223 215 217 211 212 207 174 169 189 194 170 141 122 107 93 86 70 54 44 32
221 224 224 224 226 227 228 228 228 227 232 233 231 227 223 223 226 230 235 237 240 233 221 220 223 217 214 217 215 171 188 200 198 186 169 148 121 95 75 54 36 25 24
218 211 211 220 221 225 228 227 230 231 232 236 237 236 237 238 240 234 235 239 242 241 231 224 222 219 215 218 213 191 204 205 205 202 199 195 186 158 72 28 15 9 6
215 199 199 207 208 211 216 219 233 232 237 236 241 243 245 246 243 237 238 236 237 240 237 235 213 217 218 218 215 193 209 201 206 207 206 206 205 202 203 288 5 1 356
202 194 189 188 188 192 205 209 225 228 235 238 241 244 244 246 247 244 239 233 233 238 242 241 228 221 219 222 197 206 219 196 200 206 207 208 210 211 214 224 255 299 313
192 190 191 184 179 180 189 200 218 224 231 234 239 243 241 240 241 239 237 233 231 238 246 238 229 233 218 225 209 221 223 181 196 205 207 209 211 213 217 226 239 256 274
188 184 186 190 180 180 181 188 214 210 226 230 232 239 245 243 239 236 233 232 228 228 241 242 227 246 236 236 204 221 223 209 207 203 207 210 212 215 219 226 234 243 256
186 187 179 190 181 186 193 202 209 217 229 240 240 243 248 247 246 242 235 231 230 227 234 244 232 226 237 245 239 224 222 222 223 196 202 209 213 216 221 226 231 236 245
185 193 197 203 198 204 209 216 222 226 231 242 248 251 255 253 254 249 244 241 236 232 230 239 238 220 228 234 236 235 229 226 229 202 200 212 216 220 224 228 231 234 239
204 211 214 222 220 220 226 228 231 236 239 240 244 249 255 259 263 266 259 255 247 240 232 231 233 219 211 216 225 229 227 218 223 216 210 216 219 220 226 229 231 234 237
244 241 237 238 235 236 238 242 240 240 240 238 238 239 244 290 330 301 293 288 272 254 241 232 229 217 204 190 213 224 231 224 225 220 217 215 216 224 225 228 230 232 232
251 243 242 243 245 250 349 298 268 247 242 237 236 237 224 224 226 232 261 287 298 287 275 248 234 229 222 211 207 212 223 219 222 210 229 229 224 233 236 238 219 219 225
55 41 351 293 276 0 358 291 262 261 248 245 243 237 227 238 242 244 212 221 236 237 267 285 263 244 230 209 198 205 212 221 219 164 215 244 237 248 251 245 221 217 223
55 46 38 35 39 31 9 340 294 255 248 242 241 247 240 241 235 274 264 251 259 235 233 261 279 277 224 190 198 198 188 182 130 135 201 244 251 268 288 276 228 228 232
56 53 47 42 40 31 17 4 328 265 251 243 239 245 255 258 106 293 273 267 261 249 185 248 330 22 96 128 150 160 164 173 194 194 192 232 256 272 277 272 254 232 241
54 59 54 44 37 30 21 13 351 323 286 256 235 229 107 321 30 260 260 264 265 256 231 205 210 205 208 192 195 215 202 202 204 206 183 199 218 235 275 250 290 275 248
Height
1553 1553 1555 1555 1557 1559 1559 1560 1562 1563 1563 1564 1564 1564 1563 1562 1562 1561 1560 1558 1558 1558 1559 1559 1559 1560 1560 1561 1562 1563 1563 1564 1564 1565 1566 1566 1567 1567 1567 1568 1568 1567 1567
1551 1552 1554 1554 1556 1558 1559 1560 1562 1562 1563 1563 1564 1563 1563 1562 1562 1560 1560 1559 1558 1558 1558 1558 1559 1559 1559 1560 1561 1561 1562 1563 1564 1564 1565 1565 1566 1566 1567 1567 1567 1567 1566
1550 1551 1553 1554 1555 1556 1558 1559 1561 1561 1562 1563 1563 1563 1563 1562 1561 1561 1560 1559 1559 1558 1558 1558 1558 1558 1559 1559 1560 1560 1561 1562 1563 1563 1564 1564 1565 1565 1565 1565 1566 1566 1565
1549 1550 1551 1552 1554 1556 1557 1558 1559 1560 1561 1562 1562 1563 1562 1561 1562 1561 1561 1560 1559 1559 1558 1557 1557 1558 1558 1558 1558 1559 1560 1561 1561 1562 1563 1563 1563 1564 1564 1564 1564 1564 1564
1547 1548 1549 1550 1552 1553 1555 1557 1558 1560 1560 1561 1561 1561 1562 1561 1561 1560 1561 1561 1559 1558 1558 1557 1557 1557 1557 1557 1557 1558 1558 1559 1560 1560 1561 1561 1562 1562 1562 1562 1563 1563 1563
1544 1546 1547 1548 1550 1551 1552 1554 1556 1557 1558 1558 1559 1559 1560 1560 1560 1560 1560 1560 1560 1559 1558 1558 1558 1557 1557 1556 1556 1556 1557 1557 1558 1559 1559 1560 1560 1560 1561 1561 1561 1561 1561
1541 1543 1544 1546 1547 1549 1550 1552 1553 1554 1555 1556 1557 1558 1558 1558 1559 1558 1558 1559 1559 1558 1557 1557 1557 1557 1557 1556 1556 1556 1556 1557 1557 1557 1558 1558 1558 1559 1559 1559 1559 1559 1559
1538 1540 1541 1543 1544 1545 1546 1548 1549 1550 1551 1553 1555 1556 1556 1556 1554 1555 1556 1556 1557 1556 1556 1556 1557 1556 1557 1557 1556 1555 1556 1556 1556 1556 1557 1557 1557 1557 1557 1558 1558 1558 1558
1534 1536 1538 1539 1540 1542 1542 1543 1545 1546 1547 1548 1550 1552 1553 1552 1552 1553 1553 1554 1554 1555 1555 1555 1556 1556 1555 1556 1556 1555 1555 1555 1556 1556 1556 1556 1556 1556 1556 1556 1556 1556 1556
1531 1533 1534 1535 1537 1538 1539 1540 1540 1541 1543 1544 1545 1546 1548 1549 1550 1550 1550 1551 1551 1552 1553 1553 1553 1554 1554 1554 1554 1554 1554 1554 1555 1555 1555 1555 1555 1555 1555 1555 1555 1555 1555
1527 1529 1530 1531 1533 1534 1535 1536 1537 1537 1538 1539 1540 1541 1542 1543 1545 1546 1547 1548 1548 1549 1549 1550 1551 1551 1552 1553 1552 1552 1553 1553 1553 1554 1554 1554 1554 1554 1554 1554 1554 1554 1553
1524 1525 1527 1528 1529 1531 1532 1533 1533 1533 1534 1535 1536 1537 1538 1538 1539 1541 1542 1543 1544 1545 1546 1546 1547 1548 1549 1550 1550 1550 1551 1551 1552 1552 1553 1553 1553 1553 1553 1553 1552 1552 1551
1522 1524 1525 1526 1527 1528 1528 1529 1530 1530 1530 1531 1531 1532 1533 1534 1535 1536 1537 1538 1540 1541 1542 1543 1543 1544 1545 1546 1548 1548 1548 1549 1549 1550 1551 1551 1551 1551 1551 1551 1551 1550 1550
1522 1523 1523 1524 1525 1525 1526 1526 1527 1527 1527 1527 1527 1528 1529 1529 1530 1531 1532 1534 1535 1536 1537 1539 1540 1540 1542 1543 1544 1545 1546 1546 1547 1548 1548 1549 1549 1549 1549 1549 1549 1548 1547
1521 1522 1522 1523 1523 1523 1524 1524 1525 1525 1525 1524 1524 1524 1524 1524 1525 1526 1527 1529 1531 1531 1532 1534 1536 1537 1538 1540 1541 1542 1543 1543 1544 1545 1545 1546 1547 1547 1547 1547 1547 1546 1545
1520 1521 1522 1522 1522 1522 1522 1522 1523 1523 1522 1522 1521 1521 1521 1521 1521 1522 1523 1524 1525 1527 1527 1528 1531 1533 1534 1536 1537 1539 1540 1540 1541 1542 1543 1543 1544 1544 1545 1545 1545 1544 1543
1519 1520 1521 1522 1522 1522 1521 1521 1522 1521 1521 1520 1519 1518 1518 1518 1517 1518 1518 1519 1520 1522 1522 1523 1525 1528 1530 1532 1533 1534 1536 1537 1538 1539 1540 1541 1541 1542 1542 1542 1542 1542 1541
1518 1519 1520 1521 1521 1520 1520 1521 1521 1520 1519 1519 1518 1517 1516 1515 1515 1514 1514 1515 1515 1516 1517 1518 1520 1522 1525 1527 1529 1530 1532 1533 1535 1535 1536 1537 1538 1539 1539 1539 1539 1539 1539
1517 1518 1518 1519 1519 1519 1519 1520 1520 1519 1518 1518 1517 1516 1515 1514 1513 1512 1511 1511 1511 1512 1512 1513 1514 1517 1519 1521 1523 1525 1527 1528 1530 1531 1532 1533 1534 1535 1536 1536 1536 1536 1536
1516 1516 1517 1518 1518 1518 1518 1518 1518 1518 1517 1517 1516 1515 1514 1513 1512 1511 1509 1509 1508 1508 1508 1509 1510 1511 1513 1515 1517 1520 1522 1523 1525 1526 1527 1529 1530 1531 1531 1532 1532 1532 1533
1514 1514 1515 1515 1516 1516 1516 1516 1516 1516 1516 1515 1515 1514 1513 1512 1510 1509 1508 1507 1506 1505 1505 1505 1506 1507 1508 1510 1512 1514 1516 1518 1520 1521 1523 1524 1525 1526 1527 1527 1528 1528 1529
1511 1512 1512 1512 1513 1513 1512 1512 1512 1513 1513 1513 1513 1513 1512 1510 1509 1508 1506 1505 1505 1504 1503 1503 1503 1503 1504 1505 1507 1509 1511 1513 1514 1517 1518 1520 1521 1522 1523 1523 1523 1524 1524
1509 1509 1509 1509 1509 1509 1508 1508 1509 1509 1510 1511 1511 1511 1510 1509 1508 1508 1506 1504 1504 1502 1502 1502 1501 1501 1501 1501 1502 1504 1505 1507 1509 1511 1512 1515 1516 1517 1518 1519 1519 1519 1519
1507 1507 1506 1506 1505 1505 1505 1505 1505 1506 1507 1507 1508 1508 1508 1508 1507 1507 1507 1506 1505 1503 1502 1501 1501 1500 1500 1500 1500 1501 1502 1504 1505 1506 1508 1509 1511 1512 1513 1514 1514 1514 1514
1507 1506 1505 1504 1504 1503 1502 1502 1502 1502 1503 1503 1504 1504 1505 1506 1504 1504 1504 1504 1503 1502 1501 1500 1500 1499 1499 1499 1499 1499 1500 1501 1502 1503 1504 1506 1506 1507 1508 1509 1509 1509 1509
1508 1507 1506 1505 1503 1502 1501 1500 1499 1500 1500 1500 1500 1501 1501 1502 1501 1502 1502 1503 1502 1502 1501 1500 1499 1499 1498 1498 1498 1499 1499 1500 1501 1502 1502 1503 1504 1504 1505 1505 1505 1505 1504